TimeMDT,TemperatureF,Dew PointF,Humidity,Sea Level PressureIn,VisibilityMPH,Wind Direction,Wind SpeedMPH,Gust SpeedMPH,PrecipitationIn,Events,Conditions,WindDirDegrees,DateUTC
12:53 AM,71.1,15.1,12,29.74,10.0,NW,11.5,-,N/A,,Clear,310,2013-06-12 06:53:00
1:53 AM,68.0,15.1,13,29.78,10.0,North,11.5,-,N/A,,Clear,350,2013-06-12 07:53:00
2:53 AM,66.0,16.0,15,29.81,10.0,West,6.9,-,N/A,,Clear,270,2013-06-12 08:53:00
3:53 AM,63.0,23.0,22,29.83,10.0,West,11.5,-,N/A,,Clear,270,2013-06-12 09:53:00
4:53 AM,59.0,19.9,22,29.89,10.0,East,6.9,-,N/A,,Clear,80,2013-06-12 10:53:00
5:53 AM,57.0,19.0,23,29.91,10.0,North,5.8,-,N/A,,Clear,350,2013-06-12 11:53:00
6:53 AM,66.9,21.0,17,29.91,10.0,North,8.1,-,N/A,,Clear,350,2013-06-12 12:53:00
7:53 AM,73.9,26.1,17,29.92,9.0,WNW,10.4,-,N/A,,Clear,290,2013-06-12 13:53:00
8:53 AM,75.9,30.9,19,29.95,10.0,SW,9.2,-,N/A,,Clear,230,2013-06-12 14:53:00
9:53 AM,81.0,21.0,11,29.94,10.0,Calm,Calm,-,N/A,,Clear,0,2013-06-12 15:53:00
10:53 AM,84.9,25.0,11,29.95,10.0,South,8.1,-,N/A,,Clear,170,2013-06-12 16:53:00
11:53 AM,89.1,25.0,10,29.93,10.0,South,15.0,18.4,N/A,,Clear,180,2013-06-12 17:53:00
12:53 PM,90.0,24.1,9,29.90,10.0,SE,15.0,24.2,N/A,,Clear,140,2013-06-12 18:53:00
1:53 PM,93.0,23.0,8,29.87,10.0,SSE,15.0,25.3,N/A,,Clear,150,2013-06-12 19:53:00
2:53 PM,93.0,23.0,8,29.85,10.0,SSE,16.1,-,N/A,,Clear,150,2013-06-12 20:53:00
3:53 PM,96.1,24.1,8,29.81,10.0,SSE,19.6,26.5,N/A,,Clear,150,2013-06-12 21:53:00
4:53 PM,96.1,25.0,8,29.80,10.0,SSE,21.9,26.5,N/A,,Clear,150,2013-06-12 22:53:00
5:53 PM,93.9,26.1,9,29.78,10.0,SE,18.4,32.2,N/A,,Clear,140,2013-06-12 23:53:00
6:53 PM,91.9,26.1,9,29.77,10.0,SE,24.2,29.9,N/A,,Clear,140,2013-06-13 00:53:00
7:53 PM,89.1,28.9,12,29.76,10.0,SE,18.4,26.5,N/A,,Clear,130,2013-06-13 01:53:00
8:53 PM,87.1,32.0,14,29.77,10.0,SE,15.0,-,N/A,,Clear,130,2013-06-13 02:53:00
9:53 PM,86.0,37.0,18,-9999,10.0,SE,18.4,26.5,N/A,,Clear,140,2013-06-13 03:53:00
10:53 PM,84.0,39.0,20,-9999,10.0,SE,19.6,27.6,N/A,,Clear,140,2013-06-13 04:53:00
11:53 PM,80.1,41.0,25,-9999,10.0,East,13.8,-,N/A,,Clear,100,2013-06-13 05:53:00